Regional Weather Roundup
Issued by NWS Wakefield, VA

Home | Current Version | Previous Version | Text Only | Print | Product List | Glossary Off
Versions: 1 2 3 4 5 6 7 8 9 10 11 12 13 14 15 16 17 18 19 20 21 22 23 24 25 26 27 28 29 30 31 32 33 34 35 36 37 38 39 40 41 42 43 44 45 46 47 48 49 50

000
ASUS41 KAKQ 270115
RWRAKQ

REGIONAL WEATHER ROUNDUP
NATIONAL WEATHER SERVICE WAKEFIELD VA
900 PM EDT THU MAY 26 2016

Note: "fair" indicates few or no clouds below 12,000 feet with no
significant weather and/or obstructions to visibility. * = Denotes
station may not report precipitation (e.g., rain,snow,etc.),
thunder or fog.

VAZ042-051-052>054-056-270200-
NORTHERN VIRGINIA

CITY           SKY/WX    TMP DP  RH WIND       PRES   REMARKS
WASH NATIONAL  FAIR      79  64  60 S8        30.02R
DULLES         MOCLDY    80  62  54 S6        30.02S
FORT BELVOIR   FAIR      75  67  77 CALM      30.02R
QUANTICO       FAIR      77  67  71 SW3       30.02S
FREDERICKSBRG* NOT AVBL
STAFFORD*      FAIR      73  67  82 CALM      30.06F
WARRENTON      FAIR      75  62  63 SE3       30.02F
CULPEPER*      FAIR      74  68  81 CALM      30.03F
MANASSAS*      PTCLDY    77  70  78 CALM      30.02S
LEESBURG*      FAIR      82  66  57 S3        30.03S
WINCHESTER     RAIN      72  66  83 SW6       30.05R
FRONT ROYAL*   MOCLDY    73  66  78 NW3       30.03S
LURAY*         MOCLDY    77  63  61 SW5       30.04S
$$

VAZ048-049-060>072-079>083-270200-
CENTRAL AND SOUTH CENTRAL VIRGINIA

CITY           SKY/WX    TMP DP  RH WIND       PRES   REMARKS
RICHMOND       FAIR      77  62  59 S6        30.05R
CHESTERFIELD*  FAIR      75  57  53 S3        30.07R
PETERSBURG*    FAIR      72  72 100 CALM      30.06S
HANOVER        FAIR      77  61  57 VRB3      30.06R
TAPPAHANNOCK*  FAIR      76  63  64 S3        30.06S
QUINTON*       FAIR      76  66  71 MISG      30.05S
CHARLOTTSVILLE FAIR      78  63  59 SW5       30.04S
GORDONSVILLE*  FAIR      74  67  76 CALM      30.03F
ORANGE*        FAIR      75  66  73 CALM      30.05F
LOUISA*        FAIR      73  70  88 CALM      30.03F
BUMPASS*       FAIR      74  66  75 CALM      30.04S
FARMVILLE*     FAIR      77  66  69 CALM      30.04S
CREWE*         FAIR      73  71  95 CALM      30.06R
FORT PICKETT*  NOT AVBL
CHASE CITY*    FAIR      74  68  82 CALM      30.07S
CLARKSVILLE*   FAIR      72  68  88 CALM      30.07S
SOUTH HILL*    FAIR      72  69  90 CALM      30.13R
LAWRENCEVILLE* FAIR      74  67  76 CALM      30.07S
EMPORIA*         N/A     70  66  88 CALM      30.09R
$$

VAZ088>098-270200-
SOUTHEAST VIRGINIA

CITY           SKY/WX    TMP DP  RH WIND       PRES   REMARKS
NORFOLK        FAIR      79  64  60 S13       30.08R
VIRGINIA BEACH FAIR      81  63  54 S10       30.08R
NORFOLK NAVAL  FAIR      81  64  56 S14G24    30.09R
WEST POINT*    FAIR      73  64  73 E3        30.07R
SALUDA*        FAIR      75  65  70 S5        30.06R
NEWPORT NEWS   FAIR      80  62  54 S6        30.06R
LANGLEY AFB    FAIR      79  66  65 S14       30.08R
FORT EUSTIS    FAIR      81  68  65 S3        30.05R
WILLIAMSBURG*  FAIR      75  70  83 S3        30.07R
HR EXEC AP*    FAIR      79  64  61 S10G17    30.10R
FRANKLIN*      FAIR      78  63  60 S10       30.08R
US460-WAKEFLD  FAIR      73  64  73 CALM      30.07R
$$

VAZ020-022-025-037-045-270200-
WEST CENTRAL AND SOUTHWEST VIRGINIA

CITY           SKY/WX    TMP DP  RH WIND       PRES   REMARKS
STAUNTON*      FAIR      70  64  81 CALM      30.10R
WAYNESBORO*    FAIR      73  62  68 W5        30.09R
HOT SPRINGS VA FAIR      64  59  82 SW12      30.19F
LYNCHBURG      FAIR      69  64  84 CALM      30.09R
DANVILLE       FAIR      72  66  81 S3        30.07R
SOUTH BOSTON*  FAIR      74  68  80 CALM      30.07R
MARTINSVILLE   FAIR      65  63  93 CALM      30.11S
ROANOKE        MOCLDY    74  66  76 CALM      30.11R
BLACKSBURG     FAIR      68  63  83 CALM      30.17S
DUBLIN*        CLOUDY    72  65  78 SW3       30.16S
MARION*        FAIR      68  62  80 W3        30.19S
HILLSVILLE*    CLOUDY    70  63  78 CALM      30.17S
RICHLANDS*     FAIR      68  55  63 SW3       30.17F
WISE*          FAIR      64  55  72 S5        30.17F
ABINGDON*      FAIR      69  64  84 N3        30.16S
$$

MDZ021>025-VAZ099-100-270200-
SOUTHERN MARYLAND AND THE DELMARVA PENINSULA

CITY           SKY/WX    TMP DP  RH WIND       PRES   REMARKS
PATUXENT RIVER PTCLDY    78  59  51 S8        30.04R
BAY BRIDGE APT CLEAR     79  66  65 S7        30.03S
LEONARDTOWN    CLEAR     77  63  61 SE6       30.06S
DOVER          CLEAR     70  70 100 E3        30.03S
GEORGETOWN     CLEAR     76  64  66 S9        30.07R
EASTON         CLEAR     81  66  61 S10       30.08S
CAMBRIDGE      CLEAR     75  64  69 S8        30.05S
SALISBURY      CLEAR     74  63  68 S7        30.08R
OCEAN CITY     CLEAR     72  62  71 SW9       30.09R
WALLOPS ISLAND FAIR      71  63  75 S16       30.10R
ACCOMACK*      FAIR      72  63  73 S12       30.09R
$$

NCZ012>017-030>032-270200-
NORTH CENTRAL AND EASTERN NORTH CAROLINA

CITY           SKY/WX    TMP DP  RH WIND       PRES   REMARKS
ROANOKE RAPIDS FAIR      77  63  61 S5        30.07S
RALEIGH        PTCLDY    80  62  54 S5        30.08R
ELIZABETH CITY CLEAR     75  65  70 S10       30.11R
AHOSKIE*       PTCLDY    73  65  75 S12       30.09R
EDENTON*       CLEAR     76  72  85 S8        30.12R
CURRITUCK*     CLEAR     77  65  65 S6        30.12R
KILL DEVIL HLS CLEAR     74  65  73 SW7       30.12R
MANTEO         NOT AVBL
CAPE HATTERAS  CLEAR     73  66  78 S7        30.15S
TARBORO*       MOCLDY    80  65  59 S7        30.10R
GOLDSBORO      PTCLDY    79  67  68 S9        30.09R
WASHINGTON     CLEAR     75  64  68 S6        30.11R
GREENVILLE     CLEAR     77  64  65 S15       30.12R
NEW BERN       CLEAR     73  63  70 S6        30.15R
WILMINGTON     CLEAR     73  62  68 S7        30.14R
$$

VAZ048-270200-
ELSEWHERE

CITY           SKY/WX    TMP DP  RH WIND       PRES   REMARKS
HARRISBURG PA  MOCLDY    76  63  64 SE5       30.00S
BALTIMORE      PTCLDY    78  63  59 SE6       30.01S
ANNAPOLIS      CLEAR     74  65  73 S8        30.03R
ANDREWS AFB    MOCLDY    78  63  60 S6        30.02S
PHILADELPHIA   PTCLDY    79  53  40 S8        30.04R
HENDERSON NC   CLEAR     74  64  71 CALM      30.08S
GREENSBORO     PTCLDY    78  61  55 S3        30.09R
ROCKY MOUNT    CLEAR     75  65  70 CALM      30.08R
$$

VAZ100-270200-
MARINE

STATION/POSITION TIME  TEMP    WIND        PRES    WAVE   SWELL
                       AIR SEA DIR/SP/G            HT/PER HT/PER
                 (UTC) (F)     (DEG/KT/KT) (MB)    (FT/S) (FT/S)
BRANDYWINE LGT   0000                      1017.5R
CAPE MAY NJ      0000                      1017.3R
LEWES DE         0000                      1017.6R
15NM E FENWICK I 0050   63 58              1018.7R   2/ 7
OCEAN-CITY-INLET 0000                      1019.0R
WACHAPREAGUE VA  0000                      1018.2R
THOMAS POINT MD  0100   73 66  170/ 12/ 13 1018.1R
GOOSES REEF MD   0100   71 65  160/ 14/ 14 1018.0R   1/ 2
COVE POINT MD    0000                      1017.6R
SOLOMONS ISLAND  0000   77 67                N/A
BISHOPS HEAD MD  0000                      1017.7R
PINEY POINT MD   0000          160/ 10/ 10   N/A
POTOMAC MD       0100   74 69  180/ 12/ 14 1016.6R   1/ 2
CAMBRIDGE MD     0000                      1016.6R
LEWISETTA VA     0000                      1016.9R
RAPPAHANNOCK LGT 0000                      1018.4R
STINGRAY PT      0100   70 67  170/ 10/ 10 1018.5R   1/ 3
YORK RVR RNG VA  0000                      1017.1R
YORKTOWN VA      0000                      1017.3R
JAMESTOWN VA     0100   77 72  130/  4/  4   N/A     0
DOMINION TERM VA 0000                      1017.8R
KIPTOPEKE VA     0000      71                N/A
CHES BAY BRIDGE  0000                      1018.0R
CAPE HENRY VA    0006   80                   N/A
CHESAPEAKE LGHT  0000   70     180/ 24/ 25 1018.4R
WILLOUBY STN VA  0000                      1018.8S
CAPE HENRY BUOY  0012      65                N/A     3/ 4
1ST LANDING BUOY 0100   77 69  190/ 16/ 19 1018.5R   2/ 3
CAPE CHARLES BUO 0026      68                N/A     3/ 4   2/ 8
OFFSHORE WE BUOY 0021      61                N/A     3/ 4   2/ 7
64NM E OF VA BCH 0050   65 59  190/ 12/ 12 1019.8R   2/ 8   2/ 8
DUCK PIER NC     0000                      1018.5R
44100 DUCK FRF   0024      66                N/A     2/ 7
44056 DUCK FRF   0011      65                N/A     2/ 8
OREGON INLET NC  0000                      1020.2F
HATTERAS NC      0000                      1020.2F
DIAMOND SHLS NC  0050   76 74  180/ 12/ 14 1020.8    2/ 8   2/ 8
CAPE C1F1C2F2C3F3C4F4C5F5C6F6C7F7C8M1C9!


USA.gov is the U.S. government's official web portal to all federal, state and local government web resources and services.